SAUDISAT 1A 1 26545U 00057A 10070.89124994 .00000051 00000-0 25595-4 0 4797 2 26545 064.5591 012.6255 0050259 237.6605 121.9644 14.80661203510830 UNISAT 1 26547U 00057C 10069.98994455 .00000201 00000-0 42994-4 0 5198 2 26547 064.5571 358.1155 0056946 239.2967 120.2542 14.82487818511060 SAUDISAT 1B 1 26549U 00057E 10070.92566005 .00000072 00000-0 28866-4 0 5673 2 26549 064.5579 030.6438 0055379 238.8969 120.6700 14.79515038510478 MOZHAYETS 1 27560U 02054B 10071.04926283 .00000051 00000-0 21581-4 0 1757 2 27560 097.9219 265.1786 0044059 096.1462 264.4778 14.55079017385704 SAUDISAT 1C 1 27607U 02058C 10070.07802265 .00000065 00000-0 31996-4 0 1226 2 27607 064.5589 294.5066 0037204 122.8962 237.5743 14.71508405387946 UNISAT 2 1 27608U 02058D 10071.02086416 .00000188 00000-0 48646-4 0 1322 2 27608 064.5555 253.2736 0018562 110.0059 250.3071 14.74475974388886 SAUDISAT 2 1 28371U 04025F 10071.16852010 .00000010 00000-0 12933-4 0 4329 2 28371 097.9861 109.3337 0025110 297.8384 062.0284 14.52957021302282 UNISAT 3 1 28373U 04025H 10070.52030507 .00000084 00000-0 36342-4 0 6052 2 28373 098.0353 077.6241 0071287 010.1675 350.0945 14.43369856300700 SSETI-EXPRESS 1 28894U 05043E 10070.26928276 .00000051 00000-0 20220-4 0 7111 2 28894 098.0245 317.4351 0016593 232.7394 127.2297 14.59711985232815 SAUDISAT 3 1 31118U 07012B 10070.82100998 -.00000096 00000-0 -84098-5 0 1150 2 31118 097.9784 143.2863 0016708 103.2953 257.0090 14.68038371155445